Regional Weather Roundup
Issued by NWS

Home | Current Version | Previous Version | Graphics & Text | Print | Product List | Glossary On
Versions: 1 2 3 4 5 6 7 8 9 10 11 12 13 14 15 16 17 18 19 20 21 22 23 24 25 26 27 28 29 30 31 32 33 34 35 36 37 38 39 40 41 42 43 44 45 46 47 48 49 50
000
ASUS43 KLSX 210259
RWRMO

WEATHER SUMMARY FOR MISSOURI
NATIONAL WEATHER SERVICE SPRINGFIELD MO
1000 PM CDT SUN APR 20 2014

NOTE: "FAIR" INDICATES FEW OR NO CLOUDS BELOW 12,000 FEET WITH NO
       SIGNIFICANT WEATHER AND/OR OBSTRUCTIONS TO VISIBILITY.
       CURRENT SKY AND/OR WEATHER CONDITIONS ARE NOT AVAILABLE FOR
       CHILLICOTHE AND FARMINGTON.

MOZ001>031-035>038-043-044-053-054-210400-
...NORTHERN AND WESTERN MISSOURI...

CITY           SKY/WX    TMP DP  RH WIND       PRES   REMARKS
KANSAS CTY INT CLOUDY    66  54  65 S8        30.02R
KANSAS C DTWN  CLOUDY    69  54  58 S5        30.01R
LEE`S SUMMIT   CLOUDY    68  52  56 S7        30.04R
ST JOSEPH      CLOUDY    64  55  72 S7        30.01R
KIRKSVILLE     CLOUDY    67  48  50 SW6       30.02R

$$
MOZ066>068-077>081-088>096-101>105-210400-
...SOUTHWEST MISSOURI...

CITY           SKY/WX    TMP DP  RH WIND       PRES   REMARKS
SPRINGFIELD    MOCLDY    64  51  62 SW3       30.07R
JOPLIN         MOCLDY    66  52  60 SE7       30.05S

$$
MOZ032>034-039>042-045>050-055>058-069>072-210400-
...CENTRAL MISSOURI...

CITY           SKY/WX    TMP DP  RH WIND       PRES   REMARKS
COLUMBIA       CLOUDY    70  49  47 S3        30.03S
JEFFERSON CITY CLOUDY    70  51  51 CALM      30.02S
ROLLA          PTCLDY    65  48  54 S7        30.04S
SEDALIA        CLOUDY    69  54  58 CALM      30.04R
OSAGE BEACH    MOCLDY    66  48  52 CALM      30.06R

$$
MOZ051-052-059>065-210400-
...EAST CENTRAL MISSOURI...

CITY           SKY/WX    TMP DP  RH WIND       PRES   REMARKS
ST LOUIS INTL  MOCLDY    74  43  32 S13       30.05S
SPIRIT OF STL  CLOUDY    72  43  35 SE6       30.03S
ST CHARLES     MOCLDY    66  45  46 E8        30.04R

$$
MOZ072>076-082>087-097>100-106>115-210400-
...SOUTH CENTRAL AND SOUTHEAST MISSOURI...

CITY           SKY/WX    TMP DP  RH WIND       PRES   REMARKS
CAPE GIRARDEAU PTCLDY    62  49  62 CALM      30.09R
FARMINGTON     MOCLDY    64  43  45 S6        30.11R
POPLAR BLUFF   MOCLDY    66  50  56 CALM      30.07S
WEST PLAINS    CLOUDY    67  46  47 SE5       30.09R

$$



USA.gov is the U.S. government's official web portal to all federal, state and local government web resources and services.